Погода в Выборге

Погода в Выборге : погода сейчас, прогноз погоды и архив. Всё, что Вы хотите узнать о погоде в Выборге!

Хотите узнать прогноз погоды в Выборге? Тогда Вам сюда: Погода в Выборге

Поиск расширенной информации на нашем сайте:

Другие новости

Новости СМИ2

Главная страница сайта

Новости сайта

03.07.2017

Напоминаем, что на нашем специализированном сайте Метеоцентр.Азия вы можете получить высокодетализированные автоматические прогнозы погоды по пунктам России, СНГ и мира в авиационном формате (включающие направление и скорость ветра, видимость, явления погоды, количество и форму облачности, нижнюю и верхнюю границу облачности).


Погода в Выборге - сегодня

Время (UTC), дата Ветер
(°,м/с) 
Видим.   Явления Облачность Т
(°С)
Тd
(°С)
f(%) Тe
(°С)
Pmin
(гПа)
dP
(гПа)
Po
(мм)
O2
(г/м3)
Тmin Tmax R s Состояние
почвы
21 18.09.17 030 (СВ) 4{10}  10 км  в посл. час ливневой дождь  10/8 660 м кучево-дожд., средняя 
[Cb cap|Ac As]
+9 +8 93 +8  997.8  -2.3  747  290           
00 19.09.17 020 (С) 5{11}  10 км  {ливн. осадки}  10/6 500 м кучево-дожд., средняя 
[Cb cap|Ac As]
+8.6 +7.7 94 +7  997.5  -0.3  747  290           
03 19.09.17 010 (С) 10 км  слаб. ливневой дождь  10/10 420 м кучево-дожд. 
[Cb cap]
+8 +7.2 95 +7  998.5  1.1  748  291  +8       
06 19.09.17 360 (С) 3{10}  20000 м  {ливн. осадки}  10/8 540 м кучево-дожд., средняя 
[Cb cap|Ac trans]
+7.8 +6.6 92 +7  1000.7  2.2  749  292  +7.6      влажная 
09 19.09.17 350 (С) 20000 м    10/10 630 м 
[Sc diur, vesp]
+9.6 +6.7 82 +10  1003.4  2.7  751  291           
12 19.09.17 330 (СЗ) 20000 м    10/10 900 м 
[Sc diur, vesp]
+9.9 +6.3 78 +9  1006.6  3.2  754  292           
15 19.09.17 270 (З) 20000 м    10/10 800 м 
[Sc diur, vesp]
+9.6 +6.5 81 +9  1009  2.4  756  293      0.5     
18 19.09.17 280 (З) 10 км    10/10 840 м 
[Sc diur, vesp]
+8.7 +6.6 87 +9  1011.1  757  295    +10.3       
21 19.09.17 310 (СЗ) 10 км    9/0 средняя 
[Ac trans]
+7.9 +6.6 91 +9  1012.5  1.4  758  296           
00 20.09.17 310 (СЗ) 10 км    8/0 средняя 
[Ac trans]
+7.4 +6.7 95 +8  1014.4  1.9  760  297           
03 20.09.17 310 (СЗ) 10 км    8/0 средняя 
[Ac trans]
+7.9 +6.3 90 +9  1015.7  1.3  761  297  +6.9         
06 20.09.17 180 (Ю) 20000 м    1/0 средняя 
[Ac trans]
+8.6 +6.8 88 +10  1017.8  2.1  762  297  +6.9        влажная 
09 20.09.17 190 (Ю) 20000 м    4/3 600 м верхняя 
[Cu med, cong|Ci fib]
+11.2 +6.9 75 +11  1019.4  1.7  763  294           
12 20.09.17 100 (В) 20000 м  слаб. ливневой дождь  9/6 600 м кучево-дожд., средняя 
[Cb cap|Ac trans]
+12.4 +6.6 68 +14  1020.7  1.2  764  294           
15 20.09.17 090 (В) 20000 м  в посл. час ливневой дождь  10/6 600 м кучево-дожд., средняя 
[Cb cap|As op]
+11.4 +7.6 77 +12  1021.3  0.6  765  295      0.0     
18 20.09.17 050 (СВ) 4000 м  ливневой дождь  10/8 570 м кучево-дожд., средняя 
[Cb cap|As op]
+10.1 +9.4 95 +11  1022.8  1.5  766  296    +12.4     
21 20.09.17 090 (В) 10 км  {ливн. осадки}  10/6 600 м кучево-дожд., средняя 
[Cb cap|As op]
+10.5 +10 97 +12  1024.2  1.4  767  296           
00 21.09.17 070 (В) 10 км  {ливн. осадки}  9/6 600 м кучево-дожд., средняя 
[Cb cap|Ac trans]
+10.1 +9.7 97 +11  1026.1  1.9  768  297           
03 21.09.17 080 (В) 10 км  {ливн. осадки}  9/5 600 м кучево-дожд., средняя 
[Cb cap|Ac trans]
+9.8 +9.4 97 +10  1027.6  1.5  770  298  +9.8       
06 21.09.17 100 (В) 4000 м  дымка{ливн. осадки}  9/8 600 м кучево-дожд., средняя 
[Cb cap|Ac trans]
+10 +9.5 97 +10  1029.3  1.6  771  298  +9.6      мокрая 
09 21.09.17 080 (В) 20000 м    8/8 480 м кучево-дожд. 
[Cb cap]
+13.2 +10.7 85 +15  1030  1.6  771  295           
12 21.09.17 080 (В) 20000 м    6/4 600 м кучево-дожд., верхняя 
[Cb cap|Ci fib]
+14.6 +10.3 75 +15  1030.6  0.6  772  293           
15 21.09.17 080 (В) 3{10}  20000 м    8/6 600 м кучево-дожд., верхняя 
[Cb cap|Ci fib]
+12.4 +9.3 81 +12  1030.8  0.1  772  296           
18 21.09.17 080 (В) 4{10}  10 км    9/8 540 м кучево-дожд., верхняя 
[Cb cap|Ci fib]
+10.8 +8 83 +10  1032  1.2  773  298    +15.8       
21 21.09.17 070 (В) 10 км    10/10 500 м кучево-дожд. 
[Cb cap]
+10 +7.8 86 +9  1032.3  0.2  773  299           
Время (UTC), дата Ветер
(°,м/с) 
Видим.   Явления Облачность Т
(°С)
Тd
(°С)
f(%) Тe
(°С)
Pmin
(гПа)
dP
(гПа)
Po
(мм)
O2
(г/м3)
Тmin Tmax R s Состояние
почвы

Для получения пояснительной информации подведите курсор к названию столбца.

ПОГОДА в Выборге - архив

Всё, что Вы хотите узнать о погоде в Выборге - удобно и подробно!

Выберите нужную дату (начиная с 1 января 2015* года) и нажмите кнопку "Найти".
Будут отображены архивные сводки погоды по пункту Выборг, начиная с указанной даты.


Отображать данные в формате CSV (для использования в таблицах Excel)


Внимание! Наш архив погоды предназначен исключительно для личного некоммерческого использования в познавательных целях. Если Вам необходимы официальные справки о состоянии погоды (для производственных, юридических, коммерческих и т.п. целей), обращайтесь в органы Росгидромета.

*Примечание: данная дата относится к архиву по метеостанциям СССР (Россия, СНГ, Балтия).
Архив по метеостанциям Зарубежной Европы и Азии (кроме Китая) хранится 10 дней, по другим регионам земного шара (Китай, Африка, Америка, Австралия, Океания) - 1 день.

Выборг - район местоположения метеостанции


Название, широта, долгота, высота метеостанции:
Выборг 60.7°ш. 28.7°д. 13 м над ур. моря [Российская Федерация]

Дополнительная информация

В oтличие oт бoльшинства пoгoдных сайтoв мы публикуем пoдрoбную метеoинфoрмацию в детальнoм прoфессиoнальнoм фoрмате.

Характеристики температуры и влажнoсти вoздуха измеряются на высoте 2 м в тени вдали oт зданий и деревьев.
Скoрoсть ветра измеряется на высoте 10 м (на урoвне рoста челoвека скoрoсть ветра ниже в 1.5-2 раза). Если метеoстанция нахoдится в гoрoде или в лесу, тo скoрoсть ветра занижена на 2-4 м/с пo сравнению с oткрытым местoм. Скoрoсть ветра над акватoриями крупных рек и oзёр, а также на вершинах хoлмoв на 2-5 м/с выше, чем в oбычных услoвиях.
Атмoсфернoе давление в разных тoчках местнoсти мoжет значительнo oтличаться oт давления на метеoстанции, в зависимoсти oт услoвий рельефа (при пoдъёме на 10 м давление пoнижается примернo на 1 мм рт.ст.).